Location: Newark
(45.4422°N, 16.2769°E)
Time: 06:02:16
(UTC+00:00)

Explorer 7 - Pass Details

Date: 28 January 2021
Orbit: 484 x 677 km, 50.3° (Epoch: 05 March)

Event Time Altitude Azimuth Distance (km) Brightness Sun altitude
Exits shadow 04:52:25 26° 310° (NW) 1,032 7.7 -15.5°
Maximum altitude 04:54:03 40° 1° (N) 782 7.5 -15.2°
Drops below altitude 10° 04:57:55 10° 72° (ENE) 1,807 10.4 -14.5°
Sets 05:00:20 0° 80° (E) 2,736 11.7 -14.1°
